Woodrising, United Kingdom

11:37 AM GMT on December 05, 2016 (GMT +0000)
Marham

Weather History for EGYM - January, 2013

Change the Weather History Date:

Sunday, January 6, 2013

  Actual Average (EGSH) Record (EGSH)
Temperature  
Mean Temperature 40 °F -  
Max Temperature 46 °F 43 °F 55 °F (1999)
Min Temperature 35 °F 35 °F 24 °F (2009)
Degree Days  
Heating Degree Days 24    
Moisture  
Dew Point 41 °F    
Average Humidity 98    
Maximum Humidity 100    
Minimum Humidity 92    
Precipitation  
Precipitation 0.01 in - - ()
Sea Level Pressure  
Sea Level Pressure 30.43 in    
Wind  
Wind Speed 6 mph ()    
Max Wind Speed 10 mph    
Max Gust Speed -    
Visibility 1.1 miles    
Events Fog    
Averages and records for this station are not official NWS values.
T = Trace of Precipitation, MM = Missing Value Source: Averaged Metar Reports

Daily Weather History Graph

Daily Weather History Graph

Search for Another Location

Airport or City:

Trip Planner

Search our weather history database for the weather conditions in past years. The results will help you decide how hot, cold, wet, or windy it might be!

Date:

Astronomy

Jan. 06, 2013 Rise Set
Actual Time 8:07 AM GMT 3:59 PM GMT
Civil Twilight 7:26 AM GMT 4:40 PM GMT
Nautical Twilight 6:42 AM GMT 5:24 PM GMT
Astronomical Twilight 6:01 AM GMT 6:06 PM GMT
Moon 1:43 AM GMT (1/6) 11:35 AM GMT (1/6)
Length of Visible Light 9h 14m
Length of Day
7h 52m
Waning Crescent, 35% of the Moon is Illuminated
Jan 6
Waning Crescent
Jan 11
New
Jan 18
First Quarter
Jan 27
Full
Feb 3
Last Quarter

Hourly Weather History & Observations

Time (GMT) Temp. Windchill Dew Point Humidity Pressure Visibility Wind Dir Wind Speed Gust Speed Precip Events Conditions
12:50 AM 41.0 °F 37.1 °F 39.2 °F 93% 30.48 in - South 5.8 mph - N/A   Mist
1:50 AM 41.0 °F 37.1 °F 41.0 °F 100% 30.45 in - South 5.8 mph - N/A   Mostly Cloudy
2:50 AM 40 °F - 40 °F 99% 30.46 in 2 mi SW 6.9 mph - -   Mist
2:50 AM 41.0 °F 36.4 °F 39.2 °F 93% 30.45 in - SW 6.9 mph - N/A   Mostly Cloudy
3:50 AM 39.2 °F 35.0 °F 39.2 °F 100% 30.48 in - WSW 5.8 mph - N/A   Scattered Clouds
4:50 AM 41.0 °F 35.8 °F 41.0 °F 100% 30.48 in 3.1 mi WSW 8.1 mph - N/A   Partly Cloudy
5:50 AM 40 °F - 39 °F 97% 30.48 in 2 mi SSW 3.5 mph - -   Mist
5:50 AM 39.2 °F 37.0 °F 39.2 °F 100% 30.45 in 1.9 mi SSW 3.5 mph - N/A   Partly Cloudy
6:50 AM 37.4 °F 33.8 °F 37.4 °F 100% 30.45 in 0.2 mi SSW 4.6 mph - N/A Fog Fog
7:50 AM 37.4 °F 34.9 °F 37.4 °F 100% 30.48 in 0.1 mi SE 3.5 mph - N/A Fog Fog
8:50 AM 35 °F - 35 °F 99% 30.50 in 0 mi South 2.3 mph - - Fog Fog
8:50 AM 35.6 °F - 35.6 °F 100% 30.48 in 0.1 mi South 2.3 mph - N/A Fog Fog
9:50 AM 37.4 °F 32.8 °F 37.4 °F 100% 30.48 in 0.1 mi SSE 5.8 mph - N/A Fog Fog
10:50 AM 39.2 °F 34.2 °F 39.2 °F 100% 30.48 in 0.1 mi SSW 6.9 mph - N/A   Light Drizzle
11:50 AM 41.0 °F 35.8 °F 39.2 °F 93% 30.48 in 0.1 mi SSW 8.1 mph - N/A Fog Fog
12:50 PM 42.8 °F 38.6 °F 41.0 °F 93% 30.45 in 0.1 mi SSW 6.9 mph - N/A Fog Fog
1:50 PM 42.8 °F 39.3 °F 42.8 °F 100% 30.42 in 0.1 mi SSW 5.8 mph - N/A Fog Fog
2:50 PM 44 °F - 44 °F 100% 30.43 in 0 mi SW 6.9 mph - - Fog Fog
2:50 PM 44.6 °F 40.7 °F 44.6 °F 100% 30.42 in 0.1 mi SW 6.9 mph - N/A Fog Fog
3:50 PM 44.6 °F 41.4 °F 44.6 °F 100% 30.39 in 0.1 mi South 5.8 mph - N/A Fog Fog
4:50 PM 44.6 °F 41.4 °F 44.6 °F 100% 30.39 in 0.2 mi South 5.8 mph - N/A Fog Fog
5:50 PM 46 °F - 46 °F 100% 30.41 in 1 mi SW 9.2 mph - - Fog Fog
5:50 PM 46.4 °F 41.9 °F 46.4 °F 100% 30.39 in 1.2 mi SW 9.2 mph - N/A   Mostly Cloudy
6:50 PM 46.4 °F 41.5 °F 44.6 °F 93% 30.39 in 3.1 mi SSW 10.4 mph - N/A   Overcast
7:50 PM 44.6 °F 40.2 °F 44.6 °F 100% 30.39 in - SSW 8.1 mph - N/A   Mostly Cloudy
8:50 PM 45 °F - 44 °F 93% 30.40 in 3 mi SW 8.1 mph - -   Mist
9:50 PM 44.6 °F 40.7 °F 44.6 °F 100% 30.39 in - SSW 6.9 mph - N/A   Overcast
10:50 PM 44.6 °F 39.7 °F 44.6 °F 100% 30.36 in 2.8 mi SSW 9.2 mph - N/A   Overcast
11:50 PM 46 °F - 44 °F 92% 30.38 in 3 mi SSW 8.1 mph - -   Mist
11:50 PM 46.4 °F 42.4 °F 44.6 °F 93% 30.36 in 3.1 mi SSW 8.1 mph - N/A   Overcast